Time,TemperatureF,DewpointF,PressureIn,WindDirection,WindDirectionDegrees,WindSpeedMPH,WindSpeedGustMPH,Humidity,HourlyPrecipIn,Conditions,Clouds,dailyrainin,SoftwareType,DateUTC
2013-07-28 00:53:00,66.0,61.0,30.00,WNW,291,0.0,0.0,84,-99.99,,,-99.99,,2013-07-28 04:53:00,
2013-07-28 01:02:00,66.0,61.0,29.99,WNW,291,0.0,0.0,85,-99.99,,,-99.99,,2013-07-28 05:02:00,
2013-07-28 01:12:00,66.0,61.0,30.00,WNW,291,0.0,0.0,85,-99.99,,,-99.99,,2013-07-28 05:12:00,
2013-07-28 01:22:00,66.0,61.0,30.00,WNW,291,0.0,0.0,85,-99.99,,,-99.99,,2013-07-28 05:22:00,
2013-07-28 01:32:00,66.0,62.0,30.00,WNW,291,0.0,0.0,86,-99.99,,,-99.99,,2013-07-28 05:32:00,
2013-07-28 01:43:00,66.0,62.0,30.00,WNW,291,0.0,0.0,86,0.00,,,-99.99,,2013-07-28 05:43:00,
2013-07-28 02:02:00,66.0,62.0,30.00,WNW,291,0.0,0.0,87,0.00,,,-99.99,,2013-07-28 06:02:00,
2013-07-28 02:12:00,66.0,62.0,30.00,WNW,291,0.0,0.0,87,0.00,,,-99.99,,2013-07-28 06:12:00,
2013-07-28 02:32:00,66.0,62.0,30.00,WNW,291,0.0,0.0,87,0.00,,,-99.99,,2013-07-28 06:32:00,
2013-07-28 02:43:00,66.0,62.0,29.99,WNW,291,0.0,0.0,87,0.00,,,-99.99,,2013-07-28 06:43:00,
2013-07-28 03:02:00,66.0,62.0,29.99,WNW,291,0.0,0.0,87,0.00,,,-99.99,,2013-07-28 07:02:00,
2013-07-28 03:12:00,66.0,62.0,29.99,WNW,291,0.0,0.0,87,0.00,,,-99.99,,2013-07-28 07:12:00,
2013-07-28 03:32:00,65.0,61.0,29.99,WNW,291,0.0,0.0,88,0.00,,,-99.99,,2013-07-28 07:32:00,
2013-07-28 04:02:00,65.0,62.0,29.99,WNW,291,0.0,0.0,90,0.00,,,-99.99,,2013-07-28 08:02:00,
2013-07-28 04:12:00,65.0,62.0,29.99,WNW,291,0.0,0.0,90,0.00,,,-99.99,,2013-07-28 08:12:00,
2013-07-28 04:33:00,65.0,62.0,29.99,WNW,291,0.0,0.0,90,0.00,,,-99.99,,2013-07-28 08:33:00,
2013-07-28 04:43:00,65.0,62.0,29.99,WNW,291,0.0,0.0,90,0.00,,,-99.99,,2013-07-28 08:43:00,
2013-07-28 05:02:00,65.0,62.0,29.99,WNW,291,0.0,0.0,91,0.00,,,-99.99,,2013-07-28 09:02:00,
2013-07-28 05:12:00,66.0,63.0,30.00,WNW,291,0.0,0.0,90,0.00,,,-99.99,,2013-07-28 09:12:00,
2013-07-28 05:32:00,66.0,63.0,29.99,WNW,291,0.0,0.0,90,0.00,,,-99.99,,2013-07-28 09:32:00,
2013-07-28 05:43:00,66.0,63.0,29.99,WNW,291,0.0,0.0,90,0.00,,,-99.99,,2013-07-28 09:43:00,
2013-07-28 06:02:00,66.0,63.0,30.00,WNW,291,0.0,0.0,90,0.00,,,-99.99,,2013-07-28 10:02:00,
2013-07-28 06:12:00,66.0,63.0,30.01,WNW,291,0.0,0.0,90,0.00,,,-99.99,,2013-07-28 10:12:00,
2013-07-28 06:22:00,66.0,63.0,30.01,WNW,291,0.0,0.0,90,0.00,,,-99.99,,2013-07-28 10:22:00,
2013-07-28 06:33:00,66.0,63.0,30.01,WNW,291,0.0,0.0,90,0.00,,,-99.99,,2013-07-28 10:33:00,
2013-07-28 06:42:00,66.0,63.0,30.02,WNW,291,0.0,0.0,90,0.00,,,-99.99,,2013-07-28 10:42:00,
2013-07-28 06:52:00,66.0,63.0,30.02,WNW,291,0.0,0.0,90,0.00,,,-99.99,,2013-07-28 10:52:00,
2013-07-28 07:12:00,67.0,64.0,30.02,WNW,291,0.0,0.0,90,0.00,,,-99.99,,2013-07-28 11:12:00,
2013-07-28 07:33:00,67.0,64.0,30.02,WNW,291,0.0,0.0,90,0.00,,,-99.99,,2013-07-28 11:33:00,
2013-07-28 07:43:00,67.0,64.0,30.01,WNW,291,0.0,0.0,90,0.00,,,-99.99,,2013-07-28 11:43:00,
2013-07-28 08:02:00,68.0,65.0,30.01,WNW,291,0.0,0.0,89,0.00,,,-99.99,,2013-07-28 12:02:00,
2013-07-28 08:12:00,69.0,65.0,30.01,WNW,291,0.0,0.0,88,0.00,,,-99.99,,2013-07-28 12:12:00,
2013-07-28 08:33:00,70.0,66.0,30.01,WNW,291,0.0,0.0,86,0.00,,,-99.99,,2013-07-28 12:33:00,
2013-07-28 08:43:00,70.0,65.0,30.01,WNW,291,0.0,0.0,85,0.00,,,-99.99,,2013-07-28 12:43:00,
2013-07-28 09:12:00,71.0,66.0,30.01,WNW,291,0.0,0.0,83,0.00,,,-99.99,,2013-07-28 13:12:00,
2013-07-28 09:32:00,71.0,66.0,30.00,WNW,291,0.0,0.0,83,0.00,,,-99.99,,2013-07-28 13:32:00,
2013-07-28 09:43:00,72.0,66.0,30.00,WNW,291,0.0,0.0,82,0.00,,,-99.99,,2013-07-28 13:43:00,
2013-07-28 10:02:00,73.0,66.0,30.00,WNW,291,0.0,0.0,78,0.00,,,-99.99,,2013-07-28 14:02:00,
2013-07-28 10:12:00,73.0,66.0,30.00,WNW,291,0.0,0.0,78,0.00,,,-99.99,,2013-07-28 14:12:00,
2013-07-28 10:23:00,73.0,65.0,30.00,WNW,291,0.0,0.0,76,0.00,,,-99.99,,2013-07-28 14:23:00,
2013-07-28 10:33:00,73.0,65.0,30.00,WNW,291,0.0,0.0,75,0.00,,,0.00,,2013-07-28 14:33:00,
2013-07-28 10:43:00,75.0,65.0,29.99,WNW,291,0.0,0.0,70,0.00,,,0.00,,2013-07-28 14:43:00,
2013-07-28 11:03:00,74.0,65.0,30.00,WNW,291,0.0,0.0,73,0.00,,,0.01,,2013-07-28 15:03:00,
2013-07-28 11:13:00,73.0,66.0,30.00,WNW,291,0.0,0.0,78,0.00,,,0.06,,2013-07-28 15:13:00,
2013-07-28 11:32:00,72.0,68.0,30.00,WNW,291,0.0,0.0,86,0.00,,,0.07,,2013-07-28 15:32:00,
2013-07-28 11:43:00,72.0,68.0,30.00,WNW,291,0.0,0.0,88,0.00,,,0.07,,2013-07-28 15:43:00,
2013-07-28 12:03:00,72.0,68.0,30.00,WNW,291,0.0,0.0,87,0.00,,,0.07,,2013-07-28 16:03:00,
2013-07-28 12:12:00,73.0,69.0,30.00,WNW,291,0.0,0.0,87,0.00,,,0.07,,2013-07-28 16:12:00,
2013-07-28 12:22:00,73.0,69.0,30.00,WNW,291,0.0,0.0,87,0.00,,,0.07,,2013-07-28 16:22:00,
2013-07-28 12:33:00,73.0,69.0,29.99,WNW,291,0.0,0.0,86,0.00,,,0.07,,2013-07-28 16:33:00,
2013-07-28 12:43:00,74.0,67.0,29.99,WNW,291,0.0,0.0,78,0.00,,,0.07,,2013-07-28 16:43:00,
2013-07-28 13:02:00,75.0,67.0,29.99,WNW,291,0.0,0.0,76,0.00,,,0.07,,2013-07-28 17:02:00,
2013-07-28 13:13:00,75.0,67.0,29.99,WNW,291,0.0,0.0,75,0.00,,,0.07,,2013-07-28 17:13:00,
2013-07-28 13:33:00,76.0,67.0,29.99,WNW,291,0.0,0.0,74,0.00,,,0.07,,2013-07-28 17:33:00,
2013-07-28 14:03:00,75.0,67.0,29.99,WNW,291,0.0,0.0,76,0.00,,,0.07,,2013-07-28 18:03:00,
2013-07-28 14:13:00,75.0,67.0,29.99,WNW,291,0.0,0.0,77,0.00,,,0.07,,2013-07-28 18:13:00,
2013-07-28 14:33:00,74.0,67.0,29.98,WNW,291,0.0,0.0,78,0.00,,,0.08,,2013-07-28 18:33:00,
2013-07-28 14:43:00,74.0,67.0,29.98,WNW,291,0.0,0.0,79,0.00,,,0.08,,2013-07-28 18:43:00,
2013-07-28 15:03:00,75.0,68.0,29.97,WNW,291,0.0,0.0,80,0.00,,,0.08,,2013-07-28 19:03:00,
2013-07-28 15:12:00,75.0,68.0,29.96,WNW,291,0.0,0.0,78,0.00,,,0.08,,2013-07-28 19:12:00,
2013-07-28 15:33:00,75.0,67.0,29.96,WNW,291,0.0,0.0,77,0.00,,,0.08,,2013-07-28 19:33:00,
2013-07-28 16:03:00,76.0,68.0,29.96,WNW,291,0.0,0.0,76,0.00,,,0.08,,2013-07-28 20:03:00,
2013-07-28 16:13:00,76.0,68.0,29.96,WNW,291,0.0,0.0,76,0.00,,,0.08,,2013-07-28 20:13:00,
2013-07-28 16:33:00,75.0,68.0,29.96,WNW,291,0.0,0.0,79,0.00,,,0.09,,2013-07-28 20:33:00,
2013-07-28 17:03:00,73.0,68.0,29.96,WNW,291,0.0,0.0,84,0.00,,,0.15,,2013-07-28 21:03:00,
2013-07-28 17:13:00,73.0,68.0,29.96,WNW,291,0.0,0.0,84,0.00,,,0.15,,2013-07-28 21:13:00,
2013-07-28 17:33:00,71.0,68.0,30.00,WNW,291,0.0,0.0,89,0.00,,,0.39,,2013-07-28 21:33:00,
2013-07-28 17:44:00,71.0,68.0,29.99,WNW,291,0.0,0.0,90,0.00,,,0.43,,2013-07-28 21:44:00,
2013-07-28 17:52:00,70.0,67.0,29.98,WNW,291,0.0,0.0,91,0.00,,,0.45,,2013-07-28 21:52:00,
2013-07-28 18:02:00,70.0,67.0,29.98,WNW,291,0.0,0.0,91,0.00,,,0.48,,2013-07-28 22:02:00,
2013-07-28 18:12:00,70.0,68.0,29.99,WNW,291,0.0,0.0,92,0.00,,,0.50,,2013-07-28 22:12:00,
2013-07-28 18:22:00,70.0,68.0,29.99,WNW,291,0.0,0.0,92,0.00,,,0.51,,2013-07-28 22:22:00,
2013-07-28 18:32:00,70.0,68.0,29.99,WNW,291,0.0,0.0,92,0.00,,,0.52,,2013-07-28 22:32:00,
2013-07-28 18:43:00,69.0,67.0,29.98,WNW,291,0.0,0.0,92,0.00,,,0.54,,2013-07-28 22:43:00,
2013-07-28 18:52:00,69.0,67.0,29.98,WNW,291,0.0,0.0,92,0.00,,,0.55,,2013-07-28 22:52:00,
2013-07-28 19:03:00,69.0,67.0,29.99,WNW,291,0.0,0.0,92,0.00,,,0.56,,2013-07-28 23:03:00,
2013-07-28 19:12:00,69.0,67.0,29.99,WNW,291,0.0,0.0,93,0.00,,,0.56,,2013-07-28 23:12:00,
2013-07-28 19:22:00,69.0,67.0,30.00,WNW,291,0.0,0.0,93,0.00,,,0.57,,2013-07-28 23:22:00,
2013-07-28 19:33:00,69.0,67.0,30.00,WNW,291,0.0,0.0,93,0.00,,,0.62,,2013-07-28 23:33:00,
2013-07-28 19:43:00,69.0,67.0,30.00,WNW,291,0.0,0.0,93,0.00,,,0.63,,2013-07-28 23:43:00,
2013-07-28 19:53:00,69.0,67.0,30.00,WNW,291,0.0,0.0,93,0.00,,,0.63,,2013-07-28 23:53:00,
2013-07-28 20:03:00,69.0,67.0,29.99,WNW,291,0.0,0.0,93,0.00,,,0.64,,2013-07-29 00:03:00,
2013-07-28 20:22:00,69.0,67.0,29.99,WNW,291,0.0,0.0,93,0.00,,,0.64,,2013-07-29 00:22:00,
2013-07-28 20:32:00,69.0,67.0,29.99,WNW,291,0.0,0.0,94,0.00,,,0.64,,2013-07-29 00:32:00,
2013-07-28 20:52:00,69.0,67.0,29.99,WNW,291,0.0,0.0,94,0.00,,,0.64,,2013-07-29 00:52:00,
2013-07-28 21:02:00,69.0,67.0,29.98,WNW,291,0.0,0.0,94,0.00,,,0.64,,2013-07-29 01:02:00,
2013-07-28 21:14:00,68.0,66.0,29.99,WNW,291,0.0,0.0,94,0.00,,,0.64,,2013-07-29 01:14:00,
2013-07-28 21:29:00,68.0,66.0,29.99,WNW,291,0.0,0.0,94,0.00,,,0.64,,2013-07-29 01:29:00,
2013-07-28 21:37:00,68.0,66.0,29.99,WNW,291,0.0,0.0,94,0.00,,,0.64,,2013-07-29 01:37:00,
2013-07-28 21:46:00,69.0,67.0,29.99,WNW,291,0.0,0.0,94,0.00,,,0.64,,2013-07-29 01:46:00,
2013-07-28 22:14:00,69.0,68.0,30.01,WNW,291,0.0,0.0,95,0.00,,,-99.99,,2013-07-29 02:14:00,
2013-07-28 22:27:00,69.0,68.0,30.01,WNW,291,0.0,0.0,95,0.00,,,-99.99,,2013-07-29 02:27:00,
2013-07-28 22:58:00,69.0,68.0,30.01,WNW,291,0.0,0.0,95,0.00,,,-99.99,,2013-07-29 02:58:00,
2013-07-28 23:05:00,69.0,68.0,30.02,WNW,291,0.0,0.0,95,0.00,,,-99.99,,2013-07-29 03:05:00,
2013-07-28 23:17:00,69.0,68.0,30.02,WNW,291,0.0,0.0,95,0.00,,,-99.99,,2013-07-29 03:17:00,
2013-07-28 23:25:00,69.0,68.0,30.02,WNW,291,0.0,0.0,95,0.00,,,-99.99,,2013-07-29 03:25:00,
2013-07-28 23:48:00,69.0,68.0,30.01,WNW,291,0.0,0.0,95,0.00,,,-99.99,,2013-07-29 03:48:00,